Regional Weather Roundup
Issued by NWS Cleveland, OH

Home | Current Version | Previous Version | Text Only | Print | Product List | Glossary Off
Versions: 1 2 3 4 5 6 7 8 9 10 11 12 13 14 15 16 17 18 19 20 21 22 23 24 25 26 27 28 29 30 31 32 33 34 35 36 37 38 39 40 41 42 43 44 45 46 47 48 49 50

000
ASUS41 KCLE 170702
RWRCLE
OHIO REGIONAL WEATHER ROUNDUP
NATIONAL WEATHER SERVICE CLEVELAND, OH
300 AM EDT THU APR 17 2014

NOTE: "FAIR" INDICATES FEW OR NO CLOUDS BELOW 12,000 FEET WITH NO
SIGNIFICANT WEATHER AND/OR OBSTRUCTIONS TO VISIBILITY.

OHZ001>008-015>018-024>027-034-035-043-044-170800-
   NORTHWEST OHIO

CITY           SKY/WX    TMP DP  RH WIND       PRES   REMARKS
DEFIANCE       PTCLDY    33  26  75 E8        30.30F WCI  26
FINDLAY        CLEAR     34  25  69 E7        30.29F WCI  28
TOLEDO EXPRESS CLEAR     34  27  75 E7        30.32F WCI  28
TOLEDO EXEC    CLEAR     33  27  78 E6        30.34F WCI  28
LIMA           CLEAR     36  24  62 E9        30.28F
$$

OHZ009>014-019>023-028>033-038-089-170800-
   NORTHEAST OHIO

CITY           SKY/WX    TMP DP  RH WIND       PRES   REMARKS
CLE-HOPKINS    MOCLDY    40  17  39 SE9       30.36F
CLE-LAKEFRONT  CLEAR     36  22  56 E5        30.34F
CUY CO. ARPT   NOT AVBL
LORAIN-ELYRIA  CLEAR     38  20  48 SE7       30.34F
ASHTABULA      PTCLDY    33  18  53 SE7       30.39F WCI  27
AKRON-CANTON   MOCLDY    36  16  44 E5        30.35F
WOOSTER        CLEAR     34  21  59 SE12      30.34F WCI  25
MANSFIELD      CLEAR     35  19  52 SE8       30.30F WCI  29
YOUNGSTOWN     MOCLDY    35  16  45 SE14      30.37F WCI  26
$$

OHZ042-051>053-060>062-070>072-077>081-170800-
  SOUTHWEST OHIO

CITY           SKY/WX    TMP DP  RH WIND       PRES   REMARKS
CINC-COVINGTON MOCLDY    41  23  48 E7        30.25F
CINC-LUNKEN    CLEAR     33  29  85 CALM      30.28F
HAMILTON       CLEAR     37  27  67 E3        30.27F
DAYTON         PTCLDY    39  23  52 SE13      30.27F
WRIGHT-PAT AFB PTCLDY    38  22  53 E5        30.28F
DAYTON GENERAL CLEAR     38  24  57 E10       30.25F
WILMINGTON     CLEAR     34  24  67 E5        30.26F WCI  30
$$

OHZ036-037-039>041-045>050-054>059-063>069-073>076-082>088-170800-
  CENTRAL AND SOUTHEAST OHIO

CITY           SKY/WX    TMP DP  RH WIND       PRES   REMARKS
COLUMBUS       PTCLDY    40  19  43 E9        30.30F
OSU AIRPORT    CLEAR     35  20  54 E7        30.30F WCI  29
BOLTON FIELD   NOT AVBL
RICKENBACK AFB NOT AVBL
NEWARK         MOCLDY    36  18  48 NE3       30.31F
MARION         CLEAR     35  20  54 SE12      30.30F WCI  27
LANCASTER      PTCLDY    36  20  52 SE8       30.31F
ZANESVILLE     MOCLDY    35  18  49 E5        30.33F
NEW PHILLY     MOCLDY    37  18  46 SE9       30.36F
$$



USA.gov is the U.S. government's official web portal to all federal, state and local government web resources and services.